When you browse on this site, cookies collect data to enhance your experience and personalize the content and advertising you see.
Visit our Privacy Policy to learn more. By continuing to use the site, you agree to this use of cookies and data.
  • In Schweiz
  • Länderverzeichnis
  • Für 7 Tage
  • Wassertemperatur
  • Wetterkarte
  • Widgets
  • user-avatar
    Anmelden

    Stündliche Wetter Yantai

    Heute, 6 Juni, Samstag

    Zeit Temperatur Niederschläge Wind Luftdruck Luftfeuchtigkeit
    00:00 +20°C° 0.1 mm 1 m/S 754 mmHg 61%
    01:00 +20°C° 0.1 mm 1 m/S 754 mmHg 60%
    02:00 +20°C° 0 mm 1 m/S 753 mmHg 60%
    03:00 +20°C° 0.1 mm 1 m/S 754 mmHg 61%
    04:00 +19°C° 0.1 mm 2 m/S 754 mmHg 61%
    05:00 +18°C° 0.1 mm 2 m/S 754 mmHg 62%
    06:00 +20°C° 0 mm 2 m/S 754 mmHg 56%
    07:00 +23°C° 0 mm 2 m/S 754 mmHg 51%
    08:00 +25°C° 0 mm 2 m/S 754 mmHg 43%
    09:00 +26°C° 0 mm 2 m/S 754 mmHg 42%
    10:00 +27°C° 0 mm 2 m/S 754 mmHg 41%
    11:00 +29°C° 0 mm 3 m/S 754 mmHg 41%
    12:00 +29°C° 0 mm 3 m/S 754 mmHg 40%
    13:00 +29°C° 0 mm 4 m/S 754 mmHg 40%
    14:00 +29°C° 0 mm 3 m/S 753 mmHg 38%
    15:00 +29°C° 0 mm 4 m/S 753 mmHg 40%
    16:00 +28°C° 0 mm 4 m/S 753 mmHg 41%
    17:00 +28°C° 0 mm 5 m/S 754 mmHg 43%
    18:00 +26°C° 0 mm 4 m/S 753 mmHg 52%
    19:00 +25°C° 0 mm 4 m/S 753 mmHg 61%
    20:00 +23°C° 0 mm 4 m/S 753 mmHg 70%
    21:00 +22°C° 0 mm 4 m/S 753 mmHg 75%
    22:00 +22°C° 0 mm 4 m/S 754 mmHg 79%
    23:00 +21°C° 0 mm 4 m/S 754 mmHg 83%

    Morgen, 7 Juni, Sonntag

    Zeit Temperatur Niederschläge Wind Luftdruck Luftfeuchtigkeit
    00:00 +21°C° 0 mm 4 m/S 754 mmHg 86%
    01:00 +21°C° 0 mm 3 m/S 754 mmHg 89%
    02:00 +21°C° 0 mm 3 m/S 753 mmHg 92%
    03:00 +21°C° 0 mm 3 m/S 753 mmHg 91%
    04:00 +21°C° 0 mm 3 m/S 754 mmHg 90%
    05:00 +21°C° 0 mm 3 m/S 754 mmHg 90%
    06:00 +24°C° 0 mm 3 m/S 754 mmHg 81%
    07:00 +26°C° 0 mm 3 m/S 754 mmHg 72%
    08:00 +28°C° 0 mm 3 m/S 753 mmHg 63%
    09:00 +30°C° 0 mm 3 m/S 754 mmHg 54%
    10:00 +34°C° 0 mm 3 m/S 754 mmHg 45%
    11:00 +36°C° 0 mm 2 m/S 754 mmHg 36%
    12:00 +36°C° 0 mm 2 m/S 753 mmHg 35%
    13:00 +37°C° 0 mm 2 m/S 753 mmHg 34%
    14:00 +37°C° 0 mm 2 m/S 753 mmHg 33%
    15:00 +36°C° 0 mm 3 m/S 753 mmHg 35%
    16:00 +36°C° 0 mm 3 m/S 753 mmHg 37%
    17:00 +35°C° 0 mm 3 m/S 753 mmHg 40%
    18:00 +33°C° 0 mm 4 m/S 753 mmHg 46%
    19:00 +30°C° 0 mm 5 m/S 753 mmHg 52%
    20:00 +27°C° 0 mm 6 m/S 753 mmHg 57%
    21:00 +26°C° 0 mm 6 m/S 753 mmHg 60%
    22:00 +26°C° 0 mm 6 m/S 754 mmHg 62%
    23:00 +24°C° 0 mm 6 m/S 754 mmHg 64%

    übermorgen, 8 Juni, Montag

    Zeit Temperatur Niederschläge Wind Luftdruck Luftfeuchtigkeit
    00:00 +23°C° 0 mm 6 m/S 754 mmHg 64%
    01:00 +23°C° 0 mm 6 m/S 754 mmHg 64%
    02:00 +23°C° 0 mm 5 m/S 755 mmHg 64%
    03:00 +23°C° 0 mm 5 m/S 755 mmHg 65%
    04:00 +23°C° 0 mm 5 m/S 755 mmHg 66%
    05:00 +22°C° 0 mm 5 m/S 755 mmHg 67%
    06:00 +25°C° 0 mm 5 m/S 756 mmHg 61%
    07:00 +27°C° 0 mm 5 m/S 756 mmHg 56%
    08:00 +29°C° 0 mm 5 m/S 757 mmHg 50%
    09:00 +30°C° 0 mm 5 m/S 757 mmHg 46%
    10:00 +33°C° 0 mm 5 m/S 757 mmHg 43%
    11:00 +34°C° 0 mm 5 m/S 757 mmHg 39%
    12:00 +34°C° 0 mm 5 m/S 757 mmHg 40%
    13:00 +33°C° 0 mm 6 m/S 757 mmHg 42%
    14:00 +33°C° 0 mm 6 m/S 756 mmHg 43%
    15:00 +32°C° 0 mm 6 m/S 756 mmHg 45%
    16:00 +30°C° 0 mm 6 m/S 756 mmHg 48%
    17:00 +29°C° 0 mm 6 m/S 756 mmHg 50%
    18:00 +28°C° 0 mm 5 m/S 757 mmHg 54%
    19:00 +26°C° 0 mm 5 m/S 757 mmHg 59%
    20:00 +23°C° 0 mm 4 m/S 757 mmHg 64%
    21:00 +23°C° 0 mm 4 m/S 758 mmHg 67%
    22:00 +22°C° 0 mm 4 m/S 758 mmHg 70%
    23:00 +21°C° 0 mm 4 m/S 758 mmHg 73%

    9 Juni, Dienstag

    Zeit Temperatur Niederschläge Wind Luftdruck Luftfeuchtigkeit
    00:00 +20°C° 0 mm 4 m/S 758 mmHg 74%
    01:00 +20°C° 0 mm 4 m/S 757 mmHg 76%
    02:00 +20°C° 0 mm 4 m/S 757 mmHg 78%
    03:00 +19°C° 0 mm 4 m/S 757 mmHg 80%
    04:00 +19°C° 0 mm 4 m/S 757 mmHg 82%
    05:00 +19°C° 0 mm 4 m/S 757 mmHg 85%
    06:00 +21°C° 0 mm 4 m/S 757 mmHg 78%
    07:00 +23°C° 0 mm 4 m/S 758 mmHg 71%
    08:00 +25°C° 0 mm 5 m/S 758 mmHg 65%
    09:00 +27°C° 0 mm 5 m/S 758 mmHg 59%
    10:00 +28°C° 0 mm 5 m/S 758 mmHg 54%
    11:00 +30°C° 0 mm 6 m/S 758 mmHg 49%
    12:00 +30°C° 0 mm 6 m/S 757 mmHg 48%
    13:00 +30°C° 0 mm 6 m/S 757 mmHg 47%
    14:00 +32°C° 0 mm 6 m/S 757 mmHg 46%
    15:00 +29°C° 0 mm 6 m/S 757 mmHg 54%
    16:00 +28°C° 0 mm 6 m/S 756 mmHg 62%
    17:00 +27°C° 0 mm 5 m/S 756 mmHg 70%
    18:00 +26°C° 0 mm 5 m/S 756 mmHg 74%
    19:00 +25°C° 0 mm 5 m/S 756 mmHg 77%
    20:00 +23°C° 0 mm 4 m/S 756 mmHg 81%
    21:00 +22°C° 0 mm 5 m/S 756 mmHg 82%
    22:00 +22°C° 0 mm 5 m/S 756 mmHg 84%
    23:00 +22°C° 0 mm 5 m/S 756 mmHg 85%

    10 Juni, Mittwoch

    Zeit Temperatur Niederschläge Wind Luftdruck Luftfeuchtigkeit
    00:00 +22°C° 0.1 mm 5 m/S 755 mmHg 87%
    01:00 +22°C° 0.1 mm 5 m/S 755 mmHg 89%
    02:00 +22°C° 0.1 mm 5 m/S 754 mmHg 91%
    03:00 +22°C° 1.6 mm 4 m/S 754 mmHg 92%
    04:00 +22°C° 1.6 mm 4 m/S 753 mmHg 93%
    05:00 +22°C° 1.6 mm 4 m/S 753 mmHg 94%
    06:00 +22°C° 2.4 mm 4 m/S 753 mmHg 94%
    07:00 +22°C° 2.4 mm 3 m/S 753 mmHg 94%
    08:00 +22°C° 2.4 mm 3 m/S 753 mmHg 94%
    09:00 +23°C° 0.8 mm 2 m/S 752 mmHg 93%
    10:00 +24°C° 0.8 mm 2 m/S 752 mmHg 92%
    11:00 +24°C° 0.8 mm 1 m/S 752 mmHg 91%
    12:00 +25°C° 0.1 mm 1 m/S 752 mmHg 86%
    13:00 +26°C° 0.1 mm 2 m/S 751 mmHg 81%
    14:00 +27°C° 0.1 mm 2 m/S 751 mmHg 76%
    15:00 +26°C° 0.1 mm 3 m/S 750 mmHg 79%
    16:00 +25°C° 0.1 mm 3 m/S 750 mmHg 82%
    17:00 +23°C° 0.1 mm 4 m/S 750 mmHg 85%
    18:00 +22°C° 0 mm 3 m/S 750 mmHg 88%
    19:00 +21°C° 0 mm 3 m/S 750 mmHg 90%
    20:00 +20°C° 0 mm 2 m/S 751 mmHg 93%
    21:00 +20°C° 0 mm 2 m/S 751 mmHg 93%
    22:00 +21°C° 0 mm 1 m/S 751 mmHg 94%
    23:00 +21°C° 0 mm 1 m/S 751 mmHg 94%

    11 Juni, Donnerstag

    Zeit Temperatur Niederschläge Wind Luftdruck Luftfeuchtigkeit
    00:00 +21°C° 0 mm 1 m/S 751 mmHg 94%
    01:00 +19°C° 0 mm 2 m/S 751 mmHg 94%
    02:00 +19°C° 0 mm 2 m/S 752 mmHg 95%
    03:00 +19°C° 0 mm 2 m/S 752 mmHg 95%
    04:00 +19°C° 0 mm 2 m/S 752 mmHg 96%
    05:00 +20°C° 0 mm 1 m/S 752 mmHg 96%
    06:00 +20°C° 0 mm 2 m/S 752 mmHg 91%
    07:00 +21°C° 0 mm 2 m/S 752 mmHg 86%
    08:00 +23°C° 0 mm 2 m/S 752 mmHg 81%
    09:00 +25°C° 0 mm 2 m/S 752 mmHg 71%
    10:00 +28°C° 0 mm 2 m/S 752 mmHg 60%
    11:00 +30°C° 0 mm 2 m/S 752 mmHg 50%
    12:00 +31°C° 0 mm 2 m/S 752 mmHg 47%
    13:00 +31°C° 0 mm 3 m/S 752 mmHg 45%
    14:00 +33°C° 0 mm 3 m/S 751 mmHg 42%
    15:00 +31°C° 0 mm 3 m/S 751 mmHg 48%
    16:00 +30°C° 0 mm 3 m/S 751 mmHg 53%
    17:00 +29°C° 0 mm 3 m/S 751 mmHg 58%
    18:00 +27°C° 0 mm 3 m/S 751 mmHg 63%
    19:00 +26°C° 0 mm 3 m/S 752 mmHg 68%
    20:00 +25°C° 0 mm 2 m/S 752 mmHg 73%
    21:00 +25°C° 0 mm 2 m/S 752 mmHg 75%
    22:00 +24°C° 0 mm 2 m/S 752 mmHg 76%
    23:00 +24°C° 0 mm 2 m/S 751 mmHg 78%
    Mehr zeigen